TimeMDT,TemperatureF,Dew PointF,Humidity,Sea Level PressureIn,VisibilityMPH,Wind Direction,Wind SpeedMPH,Gust SpeedMPH,PrecipitationIn,Events,Conditions,WindDirDegrees,DateUTC
12:53 AM,37.9,17.1,43,30.27,10.0,SSE,5.8,-,N/A,,Clear,150,2013-05-03 06:53:00
1:53 AM,37.0,18.0,46,30.26,10.0,East,3.5,-,N/A,,Clear,100,2013-05-03 07:53:00
2:53 AM,36.0,18.0,48,30.23,10.0,SE,3.5,-,N/A,,Scattered Clouds,130,2013-05-03 08:53:00
3:53 AM,36.0,19.9,52,30.22,10.0,SSE,3.5,-,N/A,,Mostly Cloudy,150,2013-05-03 09:53:00
4:53 AM,37.0,21.0,52,30.20,10.0,ESE,3.5,-,N/A,,Overcast,120,2013-05-03 10:53:00
5:53 AM,37.0,21.0,52,30.21,10.0,Calm,Calm,-,N/A,,Mostly Cloudy,0,2013-05-03 11:53:00
6:53 AM,37.0,21.9,54,30.20,10.0,Calm,Calm,-,N/A,,Overcast,0,2013-05-03 12:53:00
7:53 AM,39.9,21.0,47,30.20,10.0,Calm,Calm,-,N/A,,Overcast,0,2013-05-03 13:53:00
8:53 AM,43.0,19.9,40,30.21,10.0,Calm,Calm,-,N/A,,Overcast,0,2013-05-03 14:53:00
9:53 AM,50.0,24.1,36,30.18,10.0,NNW,12.7,18.4,N/A,,Mostly Cloudy,330,2013-05-03 15:53:00
10:53 AM,48.9,25.0,39,30.20,10.0,NNW,13.8,-,N/A,,Mostly Cloudy,330,2013-05-03 16:53:00
11:53 AM,50.0,26.1,39,30.20,10.0,WNW,9.2,-,N/A,,Overcast,290,2013-05-03 17:53:00
12:53 PM,48.0,30.9,52,30.21,10.0,West,9.2,18.4,0.00,Rain,Light Rain,280,2013-05-03 18:53:00
1:53 PM,48.9,32.0,52,30.20,10.0,NNW,8.1,26.5,0.00,,Overcast,340,2013-05-03 19:53:00
2:53 PM,48.0,30.9,52,30.21,10.0,WNW,15.0,19.6,0.00,,Overcast,300,2013-05-03 20:53:00
3:53 PM,46.0,30.9,56,30.22,10.0,NW,6.9,-,0.00,,Overcast,310,2013-05-03 21:53:00
4:53 PM,45.0,35.1,68,30.22,10.0,North,5.8,-,0.00,Rain,Light Rain,360,2013-05-03 22:53:00
5:53 PM,46.9,32.0,56,30.20,10.0,WNW,5.8,-,0.00,,Overcast,300,2013-05-03 23:53:00
6:27 PM,44.6,35.6,71,30.21,10.0,East,5.8,-,0.01,Rain,Light Rain,80,2013-05-04 00:27:00
6:49 PM,44.6,35.6,71,30.21,10.0,NNW,3.5,-,0.03,Rain,Light Rain,340,2013-05-04 00:49:00
6:53 PM,44.1,36.0,73,30.22,10.0,Calm,Calm,-,0.03,Rain,Light Rain,0,2013-05-04 00:53:00
7:34 PM,42.8,35.6,76,30.22,4.0,NNE,10.4,-,0.01,Rain,Rain,20,2013-05-04 01:34:00
7:46 PM,42.8,37.4,81,30.22,10.0,North,5.8,-,0.01,Rain,Light Rain,350,2013-05-04 01:46:00
7:53 PM,42.1,36.0,79,30.23,10.0,North,5.8,-,0.01,,Overcast,360,2013-05-04 01:53:00
8:53 PM,41.0,34.0,76,30.22,10.0,North,10.4,-,N/A,,Overcast,350,2013-05-04 02:53:00
9:53 PM,41.0,33.1,73,30.21,10.0,NNW,13.8,19.6,N/A,,Overcast,340,2013-05-04 03:53:00
10:53 PM,41.0,34.0,76,30.22,10.0,North,6.9,-,N/A,,Overcast,350,2013-05-04 04:53:00
11:36 PM,41.0,33.8,76,30.25,10.0,North,3.5,-,0.00,Rain,Light Rain,360,2013-05-04 05:36:00
11:53 PM,39.9,33.1,77,30.23,10.0,NNW,6.9,-,0.00,,Overcast,340,2013-05-04 05:53:00